Weather in Carrick-on-Shannon

Ireland     53°56′36″N   8°05′41″W
temp.,
°C
wind,
m/s
gust,
m/s
humid.,
%
clouds,
%
prec.,
mm/h
press.,
hPa
HPBL,
m
14 april, wed
wed1401:00+2ne11965 0.0 103423
04:00+2ne11989 0.0 103427
07:00+1ene119811 0.0 103434
10:00+8e127240 0.0 1034410
13:00+12se11505 0.0 10341619
16:00+13sse124486 0.0 10321968
19:00+10se257460 0.1 1032314
22:00+5e139621 0.1 103456
15 april, thu
thu1501:00+3e139620 0.1 103482
04:00+1e12975 0.0 103448
07:00+1e129813 0.0 103448
10:00+7ese247036 0.0 1033476
13:00+11sse355239 0.0 10321383
16:00+13sse34497 0.0 10301722
19:00+10s3775100 0.1 1030537
22:00+6se2593100 0.0 1031172
16 april, fri
fri1601:00+3se279875 0.0 1030210
04:00+3se2899100 0.0 1030259
07:00+3se1798100 0.0 1030241
10:00+7s3774100 0.0 1030683
13:00+10s3558100 0.0 10291302
16:00+11s3557100 0.0 10281533
19:00+9s277898 0.2 1028697
22:00+7sse31077100 0.0 1028539
17 april, sat
sat1701:00+5sse21083100 0.0 1027543
04:00+4sse21189100 0.0 1026540
07:00+5sse31286100 0.0 1025729
10:00+8sse41179100 0.0 10241017
13:00+7sse41190100 0.5 10231032
16:00+5sse51397100 3.3 1021952
19:00+5sse41398100 7.3 1019881
22:00+6s31298100 1.6 1019814
18 april, sun
sun1801:00+6s31199100 2.0 1018701
04:00+7s21099100 0.2 1016595
07:00+7sse2899100 0.3 1016470
10:00+8sse2699100 0.0 1015392
13:00+9se1599100 0.0 1015349
16:00+10se2599100 0.0 1013410
19:00+10se2799100 0.0 1012481
22:00+10sse2999100 0.3 1012525